Terminal Aerodrome Forecast
Issued by NWS Caribou, ME

Home | Current Version | Previous Version | Text Only | Print | Product List | Glossary On
Versions: 1 2 3 4 5 6 7 8 9 10 11 12 13 14 15 16 17 18 19
491
FTUS41 KCAR 132338
TAFCAR
TAF
KCAR 132338Z 1400/1424 34010KT P6SM VCSH OVC040
      TEMPO 1400/1403 3SM -SHSN OVC035
     FM140300 36010G18KT P6SM VCSH OVC040
     FM140800 32012G22KT P6SM BKN040
     FM141800 27012G22KT P6SM SCT040=

USA.gov is the U.S. government's official web portal to all federal, state and local government web resources and services.